Farmingdale, NY

7:36 PM EDT on June 23, 2017 (GMT -0400)
Republic

Weather History for KFRG - July, 2013

Change the Weather History Date:

Saturday, July 13, 2013

  Actual Average Record
Temperature  
Mean Temperature 74 °F -  
Max Temperature 80 °F 80 °F 87 °F (1997)
Min Temperature 68 °F 65 °F 57 °F (2001)
Cooling Degree Days 8    
Growing Degree Days 24 (Base 50)    
Moisture  
Dew Point 72 °F    
Average Humidity 93    
Maximum Humidity 100    
Minimum Humidity 83    
Precipitation  
Precipitation 0.00 in - - ()
Sea Level Pressure  
Sea Level Pressure 30.22 in    
Wind  
Wind Speed 7 mph (ESE)    
Max Wind Speed 10 mph    
Max Gust Speed 17 mph    
Visibility 6 miles    
Events Rain    
Averages and records for this station are not official NWS values.
T = Trace of Precipitation, MM = Missing Value Source: NWS Daily Summary

Daily Weather History Graph

Daily Weather History Graph

Search for Another Location

Airport or City:

Trip Planner

Search our weather history database for the weather conditions in past years. The results will help you decide how hot, cold, wet, or windy it might be!

Date:

Astronomy

Jul. 13, 2013 Rise Set
Actual Time 5:33 AM EDT 8:24 PM EDT
Civil Twilight 5:01 AM EDT 8:57 PM EDT
Nautical Twilight 4:20 AM EDT 9:37 PM EDT
Astronomical Twilight 3:33 AM EDT 10:24 PM EDT
Moon 10:49 AM EDT (7/13) 11:01 PM EDT (7/13)
Length of Visible Light 15h 55m
Length of Day
14h 50m
Waxing Crescent, 25% of the Moon is Illuminated
Jul 13
Waxing Crescent
Jul 15
First Quarter
Jul 22
Full
Jul 29
Last Quarter
Aug 6
New

Hourly Weather History & Observations

Time (EDT) Temp. Dew Point Humidity Pressure Visibility Wind Dir Wind Speed Gust Speed Precip Events Conditions
12:53 AM 68.0 °F 66.9 °F 96% 30.12 in 3.0 mi East 10.4 mph 17.3 mph N/A   Overcast
1:53 AM 69.1 °F 68.0 °F 96% 30.12 in 3.0 mi East 8.1 mph - N/A   Overcast
2:35 AM 69.8 °F 68.0 °F 94% 30.13 in 3.0 mi East 8.1 mph - N/A   Overcast
2:53 AM 69.1 °F 68.0 °F 96% 30.12 in 3.0 mi ENE 6.9 mph - N/A   Overcast
3:16 AM 69.8 °F 68.0 °F 94% 30.13 in 2.5 mi ENE 8.1 mph - N/A   Overcast
3:53 AM 69.1 °F 69.1 °F 100% 30.14 in 3.0 mi ENE 9.2 mph - N/A   Overcast
4:05 AM 69.8 °F 69.8 °F 100% 30.14 in 2.5 mi ENE 6.9 mph - N/A   Overcast
4:49 AM 69.8 °F 69.8 °F 100% 30.15 in 3.0 mi ENE 5.8 mph - N/A   Overcast
4:53 AM 69.1 °F 69.1 °F 100% 30.15 in 3.0 mi Calm Calm - N/A   Overcast
5:14 AM 69.8 °F 69.8 °F 100% 30.15 in 2.5 mi NE 4.6 mph - N/A   Overcast
5:51 AM 69.8 °F 69.8 °F 100% 30.16 in 3.0 mi East 3.5 mph - N/A Rain Light Rain
5:53 AM 69.1 °F 69.1 °F 100% 30.17 in 3.0 mi East 6.9 mph - N/A Rain Light Rain
6:15 AM 69.8 °F 69.8 °F 100% 30.17 in 2.0 mi NE 6.9 mph - N/A   Overcast
6:23 AM 69.8 °F 69.8 °F 100% 30.17 in 1.8 mi ENE 4.6 mph - N/A Rain Light Rain
6:34 AM 69.8 °F 69.8 °F 100% 30.18 in 2.5 mi Calm Calm - N/A   Overcast
6:44 AM 69.8 °F 69.8 °F 100% 30.18 in 3.0 mi ENE 6.9 mph - N/A   Overcast
6:53 AM 70.0 °F 70.0 °F 100% 30.19 in 2.5 mi ENE 5.8 mph - N/A   Overcast
7:18 AM 69.8 °F 69.8 °F 100% 30.19 in 1.5 mi ENE 3.5 mph - N/A   Overcast
7:28 AM 71.6 °F 69.8 °F 94% 30.19 in 3.0 mi ENE 5.8 mph - N/A   Overcast
7:53 AM 71.1 °F 71.1 °F 100% 30.19 in 2.0 mi East 5.8 mph - N/A   Overcast
8:34 AM 71.6 °F 71.6 °F 100% 30.22 in 1.8 mi Calm Calm - N/A   Overcast
8:42 AM 71.6 °F 71.6 °F 100% 30.22 in 2.0 mi Calm Calm - N/A   Overcast
8:46 AM 71.6 °F 71.6 °F 100% 30.22 in 2.0 mi ENE 3.5 mph - N/A   Overcast
8:53 AM 72.0 °F 71.1 °F 97% 30.22 in 2.0 mi ENE 4.6 mph - N/A   Overcast
9:49 AM 73.4 °F 73.4 °F 100% 30.23 in 2.0 mi East 4.6 mph - N/A   Overcast
9:53 AM 75.0 °F 73.9 °F 96% 30.23 in 2.0 mi ENE 4.6 mph - N/A   Overcast
10:15 AM 75.2 °F 73.4 °F 94% 30.23 in 3.0 mi East 5.8 mph - N/A   Overcast
10:46 AM 78.8 °F 75.2 °F 89% 30.24 in 3.0 mi SE 4.6 mph - N/A   Mostly Cloudy
10:53 AM 78.1 °F 73.9 °F 87% 30.24 in 3.0 mi SE 5.8 mph - N/A   Mostly Cloudy
10:55 AM 78.8 °F 73.4 °F 83% 30.24 in 10.0 mi SE 5.8 mph - N/A   Mostly Cloudy
11:04 AM 78.8 °F 73.4 °F 83% 30.24 in 10.0 mi SE 6.9 mph - N/A   Mostly Cloudy
11:17 AM 78.8 °F 73.4 °F 83% 30.24 in 10.0 mi SE 8.1 mph - N/A   Mostly Cloudy
11:47 AM 78.8 °F 73.4 °F 83% 30.23 in 10.0 mi SE 10.4 mph - N/A   Overcast
11:53 AM 78.1 °F 73.9 °F 87% 30.24 in 10.0 mi SE 10.4 mph - N/A   Mostly Cloudy
12:00 PM 78.8 °F 73.4 °F 83% 30.24 in 10.0 mi ESE 8.1 mph - N/A   Mostly Cloudy
12:31 PM 78.8 °F 73.4 °F 83% 30.24 in 10.0 mi ESE 6.9 mph - N/A   Mostly Cloudy
12:46 PM 78.8 °F 73.4 °F 83% 30.24 in 10.0 mi ESE 5.8 mph - N/A   Overcast
12:53 PM 78.1 °F 73.0 °F 84% 30.25 in 10.0 mi East 5.8 mph - N/A   Overcast
1:26 PM 77.0 °F 75.2 °F 94% 30.25 in 4.0 mi SE 5.8 mph - N/A Rain Light Rain
1:45 PM 78.8 °F 75.2 °F 89% 30.25 in 9.0 mi SE 8.1 mph - N/A   Overcast
1:53 PM 77.0 °F 73.9 °F 90% 30.25 in 10.0 mi SE 8.1 mph - N/A   Overcast
2:53 PM 78.1 °F 73.9 °F 87% 30.25 in 8.0 mi ESE 9.2 mph - N/A   Overcast
3:08 PM 78.8 °F 75.2 °F 89% 30.25 in 10.0 mi SE 8.1 mph - N/A   Mostly Cloudy
3:16 PM 78.8 °F 75.2 °F 89% 30.25 in 10.0 mi SE 8.1 mph - N/A   Mostly Cloudy
3:40 PM 78.8 °F 73.4 °F 83% 30.25 in 10.0 mi SSE 9.2 mph - N/A   Scattered Clouds
3:53 PM 79.0 °F 75.0 °F 88% 30.24 in 10.0 mi SE 9.2 mph - N/A   Mostly Cloudy
4:23 PM 78.8 °F 75.2 °F 89% 30.24 in 9.0 mi SE 8.1 mph - N/A   Scattered Clouds
4:38 PM 78.8 °F 73.4 °F 83% 30.24 in 9.0 mi ESE 6.9 mph - N/A   Mostly Cloudy
4:53 PM 79.0 °F 75.0 °F 88% 30.25 in 10.0 mi SSE 6.9 mph - N/A   Overcast
5:10 PM 78.8 °F 75.2 °F 89% 30.25 in 9.0 mi South 5.8 mph - N/A   Overcast
5:17 PM 78.8 °F 75.2 °F 89% 30.25 in 8.0 mi SE 5.8 mph - N/A   Overcast
5:53 PM 77.0 °F 73.9 °F 90% 30.26 in 9.0 mi South 6.9 mph - N/A   Overcast
6:53 PM 77.0 °F 73.9 °F 90% 30.26 in 9.0 mi SE 6.9 mph - N/A   Overcast
7:38 PM 77.0 °F 73.4 °F 89% 30.27 in 10.0 mi South 5.8 mph - N/A   Overcast
7:53 PM 75.9 °F 73.9 °F 94% 30.27 in 10.0 mi SSE 8.1 mph - N/A   Mostly Cloudy
8:13 PM 75.2 °F 73.4 °F 94% 30.27 in 10.0 mi SSE 6.9 mph - N/A   Scattered Clouds
8:51 PM 75.2 °F 73.4 °F 94% 30.27 in 10.0 mi SSW 5.8 mph - N/A   Mostly Cloudy
8:53 PM 75.0 °F 73.0 °F 94% 30.27 in 10.0 mi South 5.8 mph - N/A   Mostly Cloudy
9:08 PM 75.2 °F 73.4 °F 94% 30.27 in 10.0 mi South 6.9 mph - N/A   Overcast
9:53 PM 75.0 °F 73.0 °F 94% 30.28 in 10.0 mi SSW 5.8 mph - N/A   Overcast
10:37 PM 75.2 °F 73.4 °F 94% 30.29 in 10.0 mi SW 4.6 mph - N/A   Overcast
10:53 PM 75.9 °F 73.0 °F 91% 30.29 in 10.0 mi SW 8.1 mph - N/A   Overcast
11:26 PM 75.2 °F 73.4 °F 94% 30.29 in 10.0 mi WSW 4.6 mph - N/A   Overcast
11:53 PM 75.0 °F 73.0 °F 94% 30.29 in 10.0 mi SW 3.5 mph - N/A   Overcast